| time (UTC) | temp F | wind direction | speed MPH | gust MPH | rain 1hr in | rain 24hr in | rain mn in | humidity % | barometer mb |
| 20260505123823 | 39 | 323 | 5.0 | 12.0 | 0.00 | 0.00 | 0.00 | 53 | 1008.6 |
| 20260505123323 | 39 | 351 | 4.0 | 9.0 | 0.00 | 0.00 | 0.00 | 55 | 1008.4 |
| 20260505123044 | 38 | 302 | 3.0 | 8.0 | 0.00 | 0.00 | 0.00 | 55 | 1008.3 |
| 20260505122324 | 38 | 329 | 3.0 | 8.0 | 0.00 | 0.00 | 0.00 | 57 | 1008.2 |
| 20260505121823 | 38 | 302 | 3.0 | 8.0 | 0.00 | 0.00 | 0.00 | 57 | 1008.2 |
| 20260505121321 | 38 | 336 | 2.0 | 6.0 | 0.00 | 0.00 | 0.00 | 59 | 1008.1 |
| 20260505120822 | 38 | 350 | 3.0 | 8.0 | 0.00 | 0.00 | 0.00 | 59 | 1008.1 |
| 20260505120322 | 38 | 12 | 3.0 | 8.0 | 0.00 | 0.00 | 0.00 | 60 | 1008.0 |
| 20260505115821 | 38 | 338 | 3.0 | 7.0 | 0.00 | 0.00 | 0.00 | 61 | 1007.9 |
| 20260505115322 | 38 | 300 | 3.0 | 9.0 | 0.00 | 0.00 | 0.00 | 61 | 1007.8 |
| 20260505114820 | 38 | 323 | 3.0 | 9.0 | 0.00 | 0.00 | 0.00 | 62 | 1007.7 |
| 20260505114319 | 38 | 355 | 3.0 | 8.0 | 0.00 | 0.00 | 0.00 | 62 | 1007.7 |
| 20260505113816 | 38 | 341 | 3.0 | 9.0 | 0.00 | 0.00 | 0.00 | 63 | 1007.6 |
| 20260505113310 | 38 | 339 | 3.0 | 9.0 | 0.00 | 0.00 | 0.00 | 64 | 1007.5 |
| 20260505112809 | 38 | 327 | 2.0 | 6.0 | 0.00 | 0.00 | 0.00 | 65 | 1007.4 |
| 20260505112310 | 38 | 346 | 2.0 | 7.0 | 0.00 | 0.00 | 0.00 | 65 | 1007.4 |
| 20260505111809 | 38 | 291 | 2.0 | 7.0 | 0.00 | 0.00 | 0.00 | 66 | 1007.4 |
| 20260505111309 | 38 | 334 | 2.0 | 6.0 | 0.00 | 0.00 | 0.00 | 65 | 1007.4 |
| 20260505111032 | 38 | 344 | 2.0 | 6.0 | 0.00 | 0.00 | 0.00 | 65 | 1007.3 |
| 20260505110748 | 38 | 332 | 1.0 | 4.0 | 0.00 | 0.00 | 0.00 | 65 | 1007.2 |
| 20260505101755 | 39 | 301 | 2.0 | 9.0 | 0.00 | 0.00 | 0.00 | 64 | 1007.1 |
| 20260505101254 | 39 | 350 | 3.0 | 12.0 | 0.00 | 0.00 | 0.00 | 64 | 1007.1 |
| 20260505100753 | 39 | 327 | 4.0 | 12.0 | 0.00 | 0.00 | 0.00 | 64 | 1007.0 |
| 20260505100254 | 39 | 312 | 3.0 | 11.0 | 0.00 | 0.00 | 0.00 | 63 | 1006.9 |
| 20260505095755 | 39 | 322 | 2.0 | 5.0 | 0.00 | 0.00 | 0.00 | 63 | 1006.9 |
| 20260505095253 | 40 | 319 | 3.0 | 7.0 | 0.00 | 0.00 | 0.00 | 62 | 1006.9 |
| 20260505094753 | 40 | 327 | 4.0 | 8.0 | 0.00 | 0.00 | 0.00 | 62 | 1006.9 |
| 20260505094255 | 40 | 325 | 4.0 | 8.0 | 0.00 | 0.00 | 0.00 | 62 | 1006.8 |
| 20260505094245 | 40 | 5 | 3.0 | 10.0 | 0.00 | 0.00 | 0.00 | 62 | 1006.8 |
| 20260505093254 | 40 | 355 | 4.0 | 17.0 | 0.00 | 0.00 | 0.00 | 62 | 1006.7 |
| 20260505092754 | 40 | 323 | 4.0 | 17.0 | 0.00 | 0.00 | 0.00 | 61 | 1006.7 |
| 20260505092248 | 40 | 318 | 3.0 | 7.0 | 0.00 | 0.00 | 0.00 | 61 | 1006.8 |
| 20260505092235 | 40 | 5 | 3.0 | 8.0 | 0.00 | 0.00 | 0.00 | 61 | 1006.6 |
| 20260505091512 | 40 | 9 | 3.0 | 8.0 | 0.00 | 0.00 | 0.00 | 61 | 1006.6 |
| 20260505090744 | 40 | 344 | 3.0 | 7.0 | 0.00 | 0.00 | 0.00 | 61 | 1006.5 |
| 20260505090243 | 40 | 344 | 3.0 | 8.0 | 0.00 | 0.00 | 0.00 | 60 | 1006.5 |
| 20260505090005 | 41 | 355 | 3.0 | 8.0 | 0.00 | 0.00 | 0.00 | 60 | 1006.2 |
| 20260505085505 | 41 | 28 | 3.0 | 8.0 | 0.00 | 0.00 | 0.00 | 60 | 1006.4 |
| 20260505085011 | 41 | 330 | 3.0 | 7.0 | 0.00 | 0.00 | 0.00 | 59 | 1006.1 |
| 20260505084239 | 41 | 312 | 3.0 | 7.0 | 0.00 | 0.00 | 0.00 | 59 | 1006.1 |
| 20260505083740 | 41 | 332 | 3.0 | 7.0 | 0.00 | 0.00 | 0.00 | 58 | 1006.0 |
| 20260505083456 | 41 | 337 | 3.0 | 12.0 | 0.00 | 0.00 | 0.00 | 58 | 1006.0 |
| 20260505083005 | 41 | 316 | 3.0 | 12.0 | 0.00 | 0.00 | 0.00 | 57 | 1006.0 |
| 20260505082233 | 41 | 337 | 3.0 | 8.0 | 0.00 | 0.00 | 0.00 | 57 | 1005.9 |
| 20260505081955 | 41 | 311 | 3.0 | 6.0 | 0.00 | 0.00 | 0.00 | 56 | 1005.8 |
| 20260505081223 | 41 | 313 | 3.0 | 6.0 | 0.00 | 0.00 | 0.00 | 56 | 1005.7 |
| 20260505080723 | 42 | 313 | 3.0 | 6.0 | 0.00 | 0.00 | 0.00 | 56 | 1005.7 |
| 20260505080224 | 42 | 303 | 3.0 | 6.0 | 0.00 | 0.00 | 0.00 | 55 | 1005.6 |
| 20260505075947 | 42 | 311 | 3.0 | 8.0 | 0.00 | 0.00 | 0.00 | 55 | 1005.5 |
| 20260505075223 | 42 | 329 | 3.0 | 8.0 | 0.00 | 0.00 | 0.00 | 55 | 1005.4 |
| 20260505074723 | 42 | 305 | 2.0 | 5.0 | 0.00 | 0.00 | 0.00 | 55 | 1005.6 |
| 20260505074223 | 42 | 309 | 2.0 | 4.0 | 0.00 | 0.00 | 0.00 | 54 | 1005.6 |
| 20260505073726 | 42 | 309 | 3.0 | 7.0 | 0.00 | 0.00 | 0.00 | 53 | 1005.6 |
| 20260505073223 | 42 | 296 | 3.0 | 7.0 | 0.00 | 0.00 | 0.00 | 52 | 1005.5 |
| 20260505072721 | 42 | 331 | 3.0 | 7.0 | 0.00 | 0.00 | 0.00 | 52 | 1005.6 |
| 20260505072222 | 42 | 306 | 3.0 | 7.0 | 0.00 | 0.00 | 0.00 | 52 | 1005.6 |
| 20260505071719 | 42 | 301 | 3.0 | 6.0 | 0.00 | 0.00 | 0.00 | 52 | 1005.5 |
| 20260505071220 | 43 | 305 | 4.0 | 7.0 | 0.00 | 0.00 | 0.00 | 52 | 1005.6 |
| 20260505070717 | 43 | 315 | 3.0 | 7.0 | 0.00 | 0.00 | 0.00 | 52 | 1005.5 |
| 20260505070217 | 43 | 313 | 3.0 | 6.0 | 0.00 | 0.00 | 0.00 | 53 | 1005.5 |
| 20260505065714 | 43 | 311 | 3.0 | 6.0 | 0.00 | 0.00 | 0.00 | 54 | 1005.6 |
| 20260505065213 | 43 | 335 | 3.0 | 6.0 | 0.00 | 0.00 | 0.00 | 53 | 1005.5 |
| 20260505064714 | 43 | 338 | 2.0 | 6.0 | 0.00 | 0.00 | 0.00 | 53 | 1005.6 |
| 20260505064215 | 43 | 266 | 1.0 | 4.0 | 0.00 | 0.00 | 0.00 | 53 | 1005.6 |
| 20260505063714 | 43 | 307 | 3.0 | 7.0 | 0.00 | 0.00 | 0.00 | 53 | 1005.6 |
| 20260505063211 | 43 | 307 | 3.0 | 7.0 | 0.00 | 0.00 | 0.00 | 52 | 1005.6 |
| 20260505062709 | 44 | 209 | 3.0 | 6.0 | 0.00 | 0.00 | 0.00 | 52 | 1005.6 |
| 20260505062210 | 44 | 308 | 3.0 | 7.0 | 0.00 | 0.00 | 0.00 | 52 | 1005.6 |
| 20260505061709 | 44 | 304 | 3.0 | 7.0 | 0.00 | 0.00 | 0.00 | 51 | 1005.8 |
| 20260505061209 | 44 | 313 | 3.0 | 7.0 | 0.00 | 0.00 | 0.00 | 51 | 1005.7 |
| 20260505060713 | 44 | 317 | 4.0 | 9.0 | 0.00 | 0.00 | 0.00 | 51 | 1005.7 |
| 20260505060436 | 44 | 311 | 4.0 | 9.0 | 0.00 | 0.00 | 0.00 | 50 | 1005.8 |
| 20260505055709 | 44 | 309 | 4.0 | 8.0 | 0.00 | 0.00 | 0.00 | 50 | 1005.6 |
| 20260505055210 | 44 | 210 | 4.0 | 8.0 | 0.00 | 0.00 | 0.00 | 50 | 1005.6 |
| 20260505054709 | 44 | 312 | 4.0 | 8.0 | 0.00 | 0.00 | 0.00 | 50 | 1005.5 |
| 20260505054209 | 44 | 306 | 3.0 | 8.0 | 0.00 | 0.00 | 0.00 | 50 | 1005.5 |
| 20260505053709 | 44 | 350 | 2.0 | 5.0 | 0.00 | 0.00 | 0.00 | 51 | 1005.5 |
| 20260505053210 | 44 | 315 | 2.0 | 5.0 | 0.00 | 0.00 | 0.00 | 51 | 1005.5 |
| 20260505052711 | 45 | 311 | 3.0 | 6.0 | 0.00 | 0.00 | 0.00 | 51 | 1005.4 |
| 20260505052211 | 45 | 304 | 3.0 | 9.0 | 0.00 | 0.00 | 0.00 | 50 | 1005.3 |
| 20260505051709 | 45 | 355 | 2.0 | 9.0 | 0.00 | 0.00 | 0.00 | 51 | 1005.3 |
| 20260505051211 | 45 | 311 | 2.0 | 5.0 | 0.00 | 0.00 | 0.00 | 52 | 1005.2 |
| 20260505050709 | 45 | 298 | 2.0 | 5.0 | 0.00 | 0.00 | 0.00 | 52 | 1005.2 |
| 20260505050209 | 45 | 309 | 3.0 | 5.0 | 0.00 | 0.00 | 0.00 | 51 | 1005.2 |
| 20260505041708 | 45 | 234 | 1.0 | 5.0 | 0.00 | 0.00 | 0.00 | 52 | 1005.1 |
| 20260505041208 | 45 | 277 | 0.0 | 1.0 | 0.00 | 0.00 | 0.00 | 52 | 1005.1 |
| 20260505040708 | 45 | 272 | 0.0 | 3.0 | 0.00 | 0.00 | 0.00 | 51 | 1005.1 |
| 20260505040207 | 45 | 271 | 1.0 | 3.0 | 0.00 | 0.00 | 0.00 | 51 | 1005.1 |
| 20260505035707 | 45 | 268 | 0.0 | 3.0 | 0.00 | 0.00 | 0.00 | 51 | 1005.1 |
| 20260505035208 | 45 | 267 | 0.0 | 3.0 | 0.00 | 0.00 | 0.00 | 50 | 1005.0 |
| 20260505034707 | 45 | 273 | 0.0 | 1.0 | 0.00 | 0.00 | 0.00 | 50 | 1005.0 |
| 20260505034208 | 45 | 273 | 0.0 | 0.0 | 0.00 | 0.00 | 0.00 | 49 | 1005.0 |
| 20260505033707 | 46 | 275 | 0.0 | 3.0 | 0.00 | 0.00 | 0.00 | 49 | 1005.0 |
| 20260505033205 | 46 | 276 | 0.0 | 3.0 | 0.00 | 0.00 | 0.00 | 48 | 1005.0 |
| 20260505032705 | 46 | 288 | 0.0 | 3.0 | 0.00 | 0.00 | 0.00 | 48 | 1005.0 |
| 20260505032205 | 46 | 288 | 0.0 | 2.0 | 0.00 | 0.00 | 0.00 | 48 | 1005.1 |
| 20260505031703 | 46 | 288 | 1.0 | 3.0 | 0.00 | 0.00 | 0.00 | 48 | 1005.1 |
| 20260505031204 | 46 | 289 | 1.0 | 3.0 | 0.00 | 0.00 | 0.00 | 47 | 1005.0 |
| 20260505030929 | 46 | 269 | 1.0 | 3.0 | 0.00 | 0.00 | 0.00 | 47 | 1005.1 |
| 20260505030159 | 46 | 292 | 1.0 | 3.0 | 0.00 | 0.00 | 0.00 | 46 | 1005.0 |
| 20260505025659 | 47 | 292 | 1.0 | 3.0 | 0.00 | 0.00 | 0.00 | 46 | 1005.0 |
| 20260505025159 | 47 | 292 | 2.0 | 6.0 | 0.00 | 0.00 | 0.00 | 45 | 1004.9 |
| 20260505024923 | 47 | 273 | 2.0 | 6.0 | 0.00 | 0.00 | 0.00 | 45 | 1004.9 |
| 20260505024157 | 47 | 315 | 2.0 | 5.0 | 0.00 | 0.00 | 0.00 | 45 | 1004.8 |
| 20260505024148 | 47 | 302 | 2.0 | 5.0 | 0.00 | 0.00 | 0.00 | 44 | 1004.7 |
| 20260505023145 | 47 | 304 | 1.0 | 4.0 | 0.00 | 0.00 | 0.00 | 45 | 1004.7 |
| 20260505022641 | 47 | 292 | 2.0 | 6.0 | 0.00 | 0.00 | 0.00 | 44 | 1004.6 |
| 20260505022142 | 47 | 290 | 2.0 | 6.0 | 0.00 | 0.00 | 0.00 | 43 | 1004.5 |
| 20260505021641 | 47 | 316 | 2.0 | 5.0 | 0.00 | 0.00 | 0.00 | 43 | 1004.5 |
| 20260505021141 | 47 | 311 | 2.0 | 5.0 | 0.00 | 0.00 | 0.00 | 43 | 1004.4 |
| 20260505020638 | 48 | 288 | 2.0 | 4.0 | 0.00 | 0.00 | 0.00 | 43 | 1004.3 |
| 20260505020137 | 48 | 305 | 2.0 | 6.0 | 0.00 | 0.00 | 0.00 | 43 | 1004.3 |
| 20260505015637 | 48 | 311 | 2.0 | 6.0 | 0.00 | 0.00 | 0.00 | 42 | 1004.2 |
| 20260505015137 | 48 | 306 | 2.0 | 6.0 | 0.00 | 0.00 | 0.00 | 42 | 1004.2 |
| 20260505014637 | 48 | 311 | 4.0 | 10.0 | 0.00 | 0.00 | 0.00 | 42 | 1004.1 |
| 20260505014137 | 48 | 312 | 5.0 | 10.0 | 0.00 | 0.00 | 0.00 | 41 | 1004.1 |
| 20260505013636 | 49 | 312 | 5.0 | 9.0 | 0.00 | 0.00 | 0.00 | 40 | 1004.0 |
| 20260505013137 | 49 | 300 | 5.0 | 11.0 | 0.00 | 0.00 | 0.00 | 40 | 1004.0 |
| 20260505012636 | 49 | 311 | 5.0 | 14.0 | 0.00 | 0.00 | 0.00 | 40 | 1003.9 |
| 20260505012134 | 49 | 311 | 5.0 | 14.0 | 0.00 | 0.00 | 0.00 | 40 | 1003.9 |
| 20260505011632 | 49 | 313 | 5.0 | 12.0 | 0.00 | 0.00 | 0.00 | 41 | 1003.7 |
| 20260505011347 | 50 | 298 | 5.0 | 12.0 | 0.00 | 0.00 | 0.00 | 41 | 1003.7 |
| 20260505010623 | 50 | 313 | 5.0 | 12.0 | 0.00 | 0.00 | 0.00 | 41 | 1003.6 |
| 20260505010124 | 50 | 302 | 4.0 | 11.0 | 0.00 | 0.00 | 0.00 | 41 | 1003.5 |
| 20260505005615 | 51 | 306 | 5.0 | 14.0 | 0.00 | 0.00 | 0.00 | 42 | 1003.2 |
| 20260505005343 | 51 | 14 | 6.0 | 14.0 | 0.00 | 0.00 | 0.00 | 42 | 1003.2 |
| 20260505004836 | 51 | 9 | 6.0 | 17.0 | 0.00 | 0.00 | 0.00 | 41 | 1003.2 |
| 20260505004115 | 51 | 5 | 6.0 | 17.0 | 0.00 | 0.00 | 0.00 | 41 | 1003.1 |
| 20260505003615 | 51 | 203 | 6.0 | 17.0 | 0.00 | 0.00 | 0.00 | 41 | 1003.1 |
| 20260505003114 | 52 | 311 | 6.0 | 17.0 | 0.00 | 0.00 | 0.00 | 40 | 1003.0 |
| 20260505002616 | 52 | 330 | 6.0 | 17.0 | 0.00 | 0.00 | 0.00 | 40 | 1002.9 |
| 20260505002333 | 53 | 348 | 6.0 | 16.0 | 0.00 | 0.00 | 0.00 | 39 | 1002.8 |
| 20260505001835 | 53 | 325 | 5.0 | 10.0 | 0.00 | 0.00 | 0.00 | 38 | 1002.7 |
| 20260505001603 | 53 | 340 | 5.0 | 9.0 | 0.00 | 0.00 | 0.00 | 39 | 1002.7 |
| 20260505000615 | 53 | 295 | 5.0 | 11.0 | 0.00 | 0.00 | 0.00 | 39 | 1002.4 |
| 20260505000115 | 53 | 304 | 5.0 | 12.0 | 0.00 | 0.00 | 0.00 | 39 | 1002.3 |
| 20260504235615 | 53 | 323 | 5.0 | 12.0 | 0.00 | 0.00 | 0.00 | 39 | 1002.3 |
| 20260504235110 | 54 | 309 | 6.0 | 11.0 | 0.00 | 0.00 | 0.00 | 39 | 1002.3 |
| 20260504234607 | 54 | 317 | 5.0 | 11.0 | 0.00 | 0.00 | 0.00 | 38 | 1002.3 |
| 20260504234107 | 54 | 294 | 4.0 | 11.0 | 0.00 | 0.00 | 0.00 | 38 | 1002.2 |
| 20260504233829 | 54 | 306 | 4.0 | 11.0 | 0.00 | 0.00 | 0.00 | 38 | 1002.1 |
| 20260504233334 | 55 | 312 | 4.0 | 13.0 | 0.00 | 0.00 | 0.00 | 39 | 1002.0 |
| 20260504232608 | 55 | 273 | 4.0 | 13.0 | 0.00 | 0.00 | 0.00 | 39 | 1002.0 |
| 20260504232338 | 55 | 300 | 5.0 | 12.0 | 0.00 | 0.00 | 0.00 | 38 | 1001.8 |
| 20260504231606 | 55 | 311 | 6.0 | 12.0 | 0.00 | 0.00 | 0.00 | 38 | 1001.9 |
| 20260504231328 | 55 | 290 | 6.0 | 12.0 | 0.00 | 0.00 | 0.00 | 37 | 1001.8 |
| 20260504230606 | 54 | 300 | 5.0 | 12.0 | 0.00 | 0.00 | 0.00 | 39 | 1001.9 |
| 20260504230106 | 55 | 267 | 5.0 | 14.0 | 0.00 | 0.00 | 0.00 | 39 | 1001.9 |
| 20260504225603 | 55 | 298 | 6.0 | 17.0 | 0.00 | 0.00 | 0.00 | 40 | 1001.8 |
| 20260504225103 | 55 | 316 | 6.0 | 17.0 | 0.00 | 0.00 | 0.00 | 40 | 1001.8 |
| 20260504224604 | 55 | 343 | 5.0 | 12.0 | 0.00 | 0.00 | 0.00 | 39 | 1001.6 |
| 20260504224544 | 56 | 290 | 5.0 | 12.0 | 0.00 | 0.00 | 0.00 | 39 | 1001.5 |
| 20260504224100 | 56 | 327 | 5.0 | 13.0 | 0.00 | 0.00 | 0.00 | 39 | 1001.5 |
| 20260504223059 | 56 | 312 | 5.0 | 13.0 | 0.00 | 0.00 | 0.00 | 39 | 1001.4 |
| 20260504222556 | 56 | 315 | 6.0 | 15.0 | 0.00 | 0.00 | 0.00 | 40 | 1001.3 |
| 20260504222057 | 57 | 293 | 7.0 | 15.0 | 0.00 | 0.00 | 0.00 | 39 | 1001.2 |
| 20260504221558 | 58 | 311 | 7.0 | 15.0 | 0.00 | 0.00 | 0.00 | 38 | 1001.0 |
| 20260504221409 | 58 | 5 | 6.0 | 15.0 | 0.00 | 0.00 | 0.00 | 37 | 1000.9 |
| 20260504221314 | 58 | 309 | 6.0 | 15.0 | 0.00 | 0.00 | 0.00 | 37 | 1000.8 |
| 20260504220318 | 58 | 312 | 5.0 | 14.0 | 0.00 | 0.00 | 0.00 | 36 | 1000.8 |
| 20260504215556 | 58 | 319 | 6.0 | 13.0 | 0.00 | 0.00 | 0.00 | 37 | 1000.7 |
| 20260504215057 | 58 | 300 | 6.0 | 13.0 | 0.00 | 0.00 | 0.00 | 36 | 1000.6 |
| 20260504214557 | 58 | 308 | 5.0 | 13.0 | 0.00 | 0.00 | 0.00 | 37 | 1000.5 |
| 20260504214057 | 59 | 293 | 5.0 | 13.0 | 0.00 | 0.00 | 0.00 | 38 | 1000.4 |
| 20260504213558 | 60 | 273 | 5.0 | 15.0 | 0.00 | 0.00 | 0.00 | 35 | 1000.4 |
| 20260504213057 | 62 | 267 | 6.0 | 15.0 | 0.00 | 0.00 | 0.00 | 34 | 1000.2 |
| 20260504212557 | 62 | 274 | 6.0 | 14.0 | 0.00 | 0.00 | 0.00 | 34 | 1000.0 |
| 20260504212057 | 61 | 284 | 6.0 | 12.0 | 0.00 | 0.00 | 0.00 | 34 | 1000.0 |
| 20260504211552 | 61 | 294 | 7.0 | 13.0 | 0.00 | 0.00 | 0.00 | 34 | 1000.2 |
| 20260504211045 | 61 | 303 | 6.0 | 13.0 | 0.00 | 0.00 | 0.00 | 34 | 1000.1 |
| 20260504210546 | 62 | 325 | 5.0 | 12.0 | 0.00 | 0.00 | 0.00 | 34 | 1000.0 |
| 20260504210042 | 61 | 281 | 5.0 | 11.0 | 0.00 | 0.00 | 0.00 | 36 | 1000.0 |
| 20260504205541 | 62 | 290 | 5.0 | 15.0 | 0.00 | 0.00 | 0.00 | 34 | 1000.0 |
| 20260504205040 | 62 | 325 | 5.0 | 15.0 | 0.00 | 0.00 | 0.00 | 34 | 999.9 |
| 20260504204541 | 62 | 292 | 5.0 | 11.0 | 0.00 | 0.00 | 0.00 | 36 | 999.7 |
| 20260504204038 | 62 | 289 | 6.0 | 13.0 | 0.00 | 0.00 | 0.00 | 35 | 999.7 |
| 20260504203539 | 62 | 250 | 7.0 | 18.0 | 0.00 | 0.00 | 0.00 | 35 | 999.7 |
| 20260504203039 | 62 | 292 | 8.0 | 18.0 | 0.00 | 0.00 | 0.00 | 35 | 999.8 |
| 20260504202540 | 62 | 311 | 7.0 | 16.0 | 0.00 | 0.00 | 0.00 | 32 | 999.7 |
| 20260504202038 | 63 | 288 | 6.0 | 16.0 | 0.00 | 0.00 | 0.00 | 34 | 999.6 |
| 20260504201538 | 63 | 281 | 6.0 | 13.0 | 0.00 | 0.00 | 0.00 | 34 | 999.5 |
| 20260504201040 | 63 | 241 | 6.0 | 13.0 | 0.00 | 0.00 | 0.00 | 35 | 999.5 |
| 20260504200540 | 63 | 312 | 6.0 | 13.0 | 0.00 | 0.00 | 0.00 | 34 | 999.4 |
| 20260504200039 | 63 | 298 | 6.0 | 23.0 | 0.00 | 0.00 | 0.00 | 35 | 999.4 |
| 20260504195539 | 63 | 317 | 7.0 | 23.0 | 0.00 | 0.00 | 0.00 | 37 | 999.4 |
| 20260504195304 | 62 | 302 | 6.0 | 18.0 | 0.00 | 0.00 | 0.00 | 36 | 999.3 |
| 20260504194539 | 62 | 297 | 6.0 | 15.0 | 0.00 | 0.00 | 0.00 | 36 | 999.4 |
| 20260504194039 | 62 | 289 | 6.0 | 16.0 | 0.00 | 0.00 | 0.00 | 36 | 999.4 |
| 20260504193804 | 63 | 333 | 6.0 | 16.0 | 0.00 | 0.00 | 0.00 | 35 | 999.2 |
| 20260504193038 | 63 | 309 | 6.0 | 16.0 | 0.00 | 0.00 | 0.00 | 36 | 999.1 |
| 20260504192539 | 62 | 315 | 6.0 | 12.0 | 0.00 | 0.00 | 0.00 | 37 | 999.1 |
| 20260504192038 | 64 | 311 | 6.0 | 18.0 | 0.00 | 0.00 | 0.00 | 34 | 999.0 |
| 20260504191539 | 64 | 296 | 5.0 | 18.0 | 0.00 | 0.00 | 0.00 | 34 | 999.0 |
| 20260504191038 | 64 | 234 | 6.0 | 12.0 | 0.00 | 0.00 | 0.00 | 36 | 998.7 |
| 20260504190538 | 64 | 311 | 7.0 | 12.0 | 0.00 | 0.00 | 0.00 | 34 | 998.8 |
| 20260504190040 | 63 | 242 | 6.0 | 12.0 | 0.00 | 0.00 | 0.00 | 38 | 998.6 |
| 20260504185538 | 64 | 301 | 6.0 | 12.0 | 0.00 | 0.00 | 0.00 | 36 | 998.6 |
| 20260504185039 | 64 | 306 | 6.0 | 12.0 | 0.00 | 0.00 | 0.00 | 37 | 998.6 |
| 20260504184757 | 64 | 306 | 5.0 | 11.0 | 0.00 | 0.00 | 0.00 | 36 | 998.5 |
| 20260504184524 | 65 | 254 | 5.0 | 12.0 | 0.00 | 0.00 | 0.00 | 34 | 998.3 |
| 20260504183534 | 64 | 306 | 5.0 | 14.0 | 0.00 | 0.00 | 0.00 | 34 | 998.2 |
| 20260504183035 | 64 | 314 | 5.0 | 14.0 | 0.00 | 0.00 | 0.00 | 33 | 998.3 |
| 20260504182756 | 65 | 269 | 5.0 | 10.0 | 0.00 | 0.00 | 0.00 | 32 | 998.3 |
| 20260504182251 | 64 | 315 | 5.0 | 11.0 | 0.00 | 0.00 | 0.00 | 34 | 998.2 |
| 20260504181533 | 64 | 292 | 5.0 | 12.0 | 0.00 | 0.00 | 0.00 | 35 | 998.0 |
| 20260504181033 | 64 | 307 | 6.0 | 19.0 | 0.00 | 0.00 | 0.00 | 34 | 997.9 |
| 20260504180535 | 64 | 296 | 6.0 | 19.0 | 0.00 | 0.00 | 0.00 | 34 | 998.0 |
| 20260504180034 | 64 | 238 | 6.0 | 19.0 | 0.00 | 0.00 | 0.00 | 35 | 997.8 |
| 20260504175533 | 64 | 226 | 6.0 | 19.0 | 0.00 | 0.00 | 0.00 | 34 | 997.8 |
| 20260504175033 | 64 | 292 | 6.0 | 12.0 | 0.00 | 0.00 | 0.00 | 36 | 997.7 |
| 20260504174534 | 63 | 260 | 6.0 | 19.0 | 0.00 | 0.00 | 0.00 | 36 | 997.7 |
| 20260504174030 | 64 | 216 | 6.0 | 19.0 | 0.00 | 0.00 | 0.00 | 35 | 997.8 |
| 20260504173752 | 63 | 257 | 6.0 | 16.0 | 0.00 | 0.00 | 0.00 | 37 | 997.7 |
| 20260504173251 | 63 | 287 | 5.0 | 13.0 | 0.00 | 0.00 | 0.00 | 38 | 997.8 |
| 20260504172532 | 63 | 292 | 6.0 | 12.0 | 0.00 | 0.00 | 0.00 | 37 | 997.8 |
| 20260504172034 | 63 | 299 | 6.0 | 13.0 | 0.00 | 0.00 | 0.00 | 38 | 997.7 |
| 20260504171530 | 62 | 300 | 6.0 | 15.0 | 0.00 | 0.00 | 0.00 | 36 | 997.7 |
| 20260504171031 | 62 | 331 | 6.0 | 15.0 | 0.00 | 0.00 | 0.00 | 38 | 997.8 |
| 20260504170534 | 62 | 311 | 6.0 | 12.0 | 0.00 | 0.00 | 0.00 | 38 | 997.8 |
| 20260504151026 | 62 | 327 | 4.0 | 10.0 | 0.00 | 0.00 | 0.00 | 40 | 997.1 |
| 20260504150526 | 62 | 259 | 4.0 | 8.0 | 0.00 | 0.00 | 0.00 | 41 | 997.1 |
| 20260504141027 | 61 | 309 | 6.0 | 13.0 | 0.00 | 0.00 | 0.00 | 37 | 996.9 |
| 20260504140520 | 61 | 315 | 5.0 | 13.0 | 0.00 | 0.00 | 0.00 | 36 | 996.8 |
| 20260504130512 | 60 | 296 | 4.0 | 12.0 | 0.00 | 0.00 | 0.00 | 49 | 995.8 |